Location: Newark
(46.9000°N, 28.3500°E)
Time: 13:01:20
(UTC+00:00)

Vanguard 1 Rocket - Pass Details

Date: 02 September 2019
Orbit: 650 x 4226 km, 34.3° (Epoch: 20 October)

Event Time Altitude Azimuth Distance (km) Brightness Sun altitude
Rises 01:59:24 0° 249° (WSW) 2,955 - -14.7°
Exits shadow 02:04:33 10° 196° (SSW) 2,230 9.0 -13.9°
Maximum altitude 02:04:34 10° 196° (SSW) 2,232 9.0 -13.9°
Drops below altitude 10° 02:04:38 10° 195° (SSW) 2,236 9.0 -13.9°
Sets 02:10:52 0° 147° (SSE) 3,763 10.6 -13.0°
